Weather History for KHWO - June, 2013

Change the Weather History Date:

Tuesday, June 18, 2013

  Actual Average (KFLL) Record (KFLL)
Temperature  
Mean Temperature 84 °F 83 °F  
Max Temperature 91 °F 89 °F 96 °F (1921)
Min Temperature 79 °F 78 °F 67 °F (1928)
Degree Days  
Heating Degree Days 0 0  
Month to date heating degree days 0  
Since 1 June heating degree days 0  
Since 1 July heating degree days 112  
Cooling Degree Days 20 18  
Month to date cooling degree days 321  
Year to date cooling degree days 1739  
Since 1 June cooling degree days 321  
Growing Degree Days 34 (Base 50)    
Moisture  
Dew Point 74 °F    
Average Humidity 71    
Maximum Humidity 87    
Minimum Humidity 57    
Precipitation  
Precipitation 0.00 in 0.35 in 5.50 in (1954)
Month to date precipitation 5.93  
Year to date precipitation 23.42  
Snow  
Snow 0.00 in - - ()
Month to date snowfall  
Since 1 June snowfall  
Since 1 July snowfall  
Snow Depth -    
Sea Level Pressure  
Sea Level Pressure 30.06 in    
Wind  
Wind Speed 6 mph (SE)    
Max Wind Speed 14 mph    
Max Gust Speed 20 mph    
Visibility 10 miles    
Events      
T = Trace of Precipitation, MM = Missing Value Source: NWS Daily Summary

Daily Weather History Graph

Daily Weather History Graph

Search for Another Location

Airport or City:

Trip Planner

Search our weather history database for the weather conditions in past years. The results will help you decide how hot, cold, wet, or windy it might be!

Date:

Astronomy

Jun. 18, 2013 Rise Set
Actual Time 6:29 AM EDT 8:15 PM EDT
Civil Twilight 6:03 AM EDT 8:41 PM EDT
Nautical Twilight 5:31 AM EDT 9:12 PM EDT
Astronomical Twilight 4:58 AM EDT 9:45 PM EDT
Moon 3:18 PM EDT (6/18) 2:11 AM EDT (6/18)
Length of Visible Light 14h 38m
Length of Day
13h 45m
Waxing Gibbous, 70% of the Moon is Illuminated
Jun 18
Waxing Gibbous
Jun 23
Full
Jun 30
Last Quarter
Jul 8
New
Jul 15
First Quarter

Hourly Weather History & Observations

Time (EDT) Temp. Heat Index Dew Point Humidity Pressure Visibility Wind Dir Wind Speed Gust Speed Precip Events Conditions
12:53 AM 81.0 °F 86.7 °F 75.0 °F 82% 30.08 in 10.0 mi SE 3.5 mph - N/A   Clear
1:53 AM 81.0 °F 86.7 °F 75.0 °F 82% 30.07 in 10.0 mi Calm Calm - N/A   Clear
2:53 AM 80.1 °F 85.1 °F 75.0 °F 85% 30.06 in 10.0 mi Calm Calm - N/A   Partly Cloudy
3:53 AM 80.1 °F 85.4 °F 75.9 °F 87% 30.06 in 10.0 mi Calm Calm - N/A   Partly Cloudy
4:53 AM 80.1 °F 85.1 °F 75.0 °F 85% 30.05 in 10.0 mi SSE 3.5 mph - N/A   Clear
5:53 AM 79.0 °F - 73.9 °F 84% 30.04 in 10.0 mi East 4.6 mph - N/A   Clear
6:53 AM 80.1 °F 85.1 °F 75.0 °F 85% 30.05 in 10.0 mi SE 5.8 mph - N/A   Clear
7:53 AM 82.0 °F 88.6 °F 75.0 °F 79% 30.06 in 10.0 mi SE 8.1 mph - N/A   Partly Cloudy
8:53 AM 84.0 °F 91.9 °F 75.0 °F 74% 30.09 in 10.0 mi SSE 8.1 mph - N/A   Partly Cloudy
9:53 AM 86.0 °F 93.0 °F 73.0 °F 65% 30.09 in 10.0 mi SE 9.2 mph - N/A   Partly Cloudy
10:53 AM 87.1 °F 95.4 °F 73.9 °F 65% 30.09 in 10.0 mi ESE 9.2 mph 17.3 mph N/A   Scattered Clouds
11:53 AM 88.0 °F 95.6 °F 73.0 °F 61% 30.09 in 10.0 mi ESE 8.1 mph - N/A   Scattered Clouds
12:53 PM 89.1 °F 96.0 °F 72.0 °F 57% 30.08 in 10.0 mi ESE 11.5 mph - N/A   Partly Cloudy
1:53 PM 90.0 °F 99.0 °F 73.9 °F 59% 30.07 in 10.0 mi ESE 10.4 mph - N/A   Scattered Clouds
2:53 PM 90.0 °F 97.9 °F 73.0 °F 57% 30.05 in 10.0 mi ESE 10.4 mph - N/A   Partly Cloudy
3:53 PM 89.1 °F 96.0 °F 72.0 °F 57% 30.04 in 10.0 mi ESE 12.7 mph - N/A   Partly Cloudy
4:53 PM 89.1 °F 97.0 °F 73.0 °F 59% 30.03 in 10.0 mi SE 11.5 mph 19.6 mph N/A   Clear
5:53 PM 87.1 °F 94.5 °F 73.0 °F 63% 30.02 in 10.0 mi SE 13.8 mph 19.6 mph N/A   Clear
6:53 PM 84.9 °F 90.7 °F 72.0 °F 65% 30.02 in 10.0 mi SSE 12.7 mph - N/A   Scattered Clouds
7:00 PM 84.2 °F 89.6 °F 71.6 °F 66% 30.02 in 10.0 mi SSE 11.5 mph - N/A   Mostly Cloudy
7:10 PM 84.2 °F 89.6 °F 71.6 °F 66% 30.02 in 10.0 mi SE 11.5 mph - N/A   Scattered Clouds
7:53 PM 84.0 °F 90.2 °F 73.0 °F 69% 30.03 in 10.0 mi SE 11.5 mph - N/A   Clear
8:53 PM 82.9 °F 88.8 °F 73.0 °F 72% 30.04 in 10.0 mi SSE 8.1 mph - N/A   Clear
9:53 PM 82.9 °F 88.8 °F 73.0 °F 72% 30.06 in 10.0 mi SE 8.1 mph - N/A   Clear
10:53 PM 82.0 °F 87.9 °F 73.9 °F 76% 30.05 in 10.0 mi SSE 5.8 mph - N/A   Clear
11:53 PM 82.0 °F 87.9 °F 73.9 °F 76% 30.07 in 10.0 mi SSE 4.6 mph - N/A   Partly Cloudy